User: anonymous   Login
Location: Indian Springs
(36.5700°N, 115.6700°W)
Time: 11:49:44
(UTC-07:00)
Language:

Cosmos 2278 Rocket - Orbit

View from above orbital plane
View from above orbital plane
View from above satellite
View from above satellite

Ground track
Ground track

The orbit data is extracted from the following two-line orbital elements,

1 23088U 94023B   16182.56179959 -.00000030  00000-0  93878-5 0  9992
2 23088  71.0016 300.0593 0005634 273.8267  86.2212 14.14647107145816
Epoch (UTC): 30 June 2016 13:28:59
Eccentricity: 0.0005634
inclination: 71.0016°
perigee height: 839 km
apogee height: 847 km
right ascension of ascending node: 300.0593°
argument of perigee: 273.8267°
revolutions per day: 14.14647107
mean anomaly at epoch: 86.2212°
orbit number at epoch: 14581

The dashed part of the orbit path shows where the satellite is in the earth's shadow,  

DLR